Wind_Speed
42 45 46 47 49 51 53 55 55 54 54 56 57 58 57 57 57 54 53 53 52 50 48 46 38 29 24 22 23 26 27 30 33 37 42 44 46 48 45 44 43 45 50
28 30 37 42 43 44 45 47 47 46 46 46 48 48 50 51 53 54 54 53 52 49 39 32 26 22 22 24 27 29 31 34 37 41 45 48 51 49 46 45 46 48 51
15 17 21 24 27 32 34 33 35 35 36 35 35 34 35 38 41 41 41 39 35 30 27 22 20 21 24 27 29 31 34 37 41 45 48 52 50 48 48 50 51 51 53
7 8 8 9 12 15 18 21 26 28 29 30 30 31 30 29 29 28 27 26 25 21 20 19 21 24 28 29 30 34 37 41 46 49 53 51 50 50 52 53 55 58 60
3 2 2 2 3 9 13 16 19 21 24 26 26 23 23 23 23 21 20 19 18 18 19 20 24 27 28 31 35 38 42 47 51 54 54 52 52 53 56 58 60 61 65
7 3 3 4 3 2 8 13 16 18 19 20 21 20 17 15 15 15 15 16 16 17 20 24 26 27 31 34 38 43 47 51 54 54 52 54 56 59 59 61 64 67 70
9 7 6 4 5 5 4 5 7 9 11 11 12 12 12 12 12 13 13 14 18 22 24 25 28 32 35 39 44 48 52 54 54 54 55 57 59 61 63 67 69 74 76
12 10 8 7 5 5 5 5 5 6 7 9 9 9 10 10 12 13 15 17 19 23 25 29 32 36 40 45 49 52 53 54 53 55 57 59 60 63 67 70 76 79 81
19 17 14 12 11 10 9 8 8 9 10 11 11 11 12 13 15 17 18 21 23 26 30 34 37 42 45 48 50 52 52 52 55 59 60 62 65 69 73 76 80 83 86
23 21 20 19 18 17 16 15 15 15 15 16 17 17 18 19 20 21 23 26 29 32 36 38 42 45 46 49 50 51 51 55 58 60 63 65 69 73 78 81 84 88 91
28 27 25 24 23 22 21 21 21 21 21 21 22 22 23 24 25 26 29 32 34 37 40 42 43 46 48 49 50 52 56 58 59 62 66 70 75 79 83 84 88 92 96
27 27 29 29 29 27 26 26 26 26 25 25 26 26 28 29 31 33 34 36 39 41 42 44 46 48 49 51 52 55 58 60 63 68 73 76 80 84 87 89 92 97 100
31 29 29 30 31 32 31 31 31 30 31 31 31 32 33 34 35 38 39 42 43 44 45 47 47 49 51 52 56 59 61 65 69 74 78 82 86 89 91 91 96 100 105
31 31 31 31 32 33 34 35 35 36 36 37 37 38 38 39 41 41 42 43 45 46 49 49 50 52 54 58 61 63 66 71 75 80 83 86 90 91 92 95 100 105 109
31 32 33 34 34 34 35 36 37 39 40 40 40 41 42 43 44 45 45 46 46 49 49 52 54 56 59 63 66 68 72 75 79 84 87 90 91 93 95 100 103 108 113
34 35 35 36 37 38 38 39 40 42 43 44 44 45 46 46 46 47 47 49 51 51 53 56 59 61 64 67 71 73 77 81 84 87 89 91 94 95 100 103 107 111 115
41 40 40 40 41 42 42 42 42 43 45 46 46 47 47 48 49 49 51 54 54 56 59 61 63 66 69 73 76 79 82 85 85 88 89 92 95 100 103 105 109 114 120
45 45 44 45 45 45 44 45 44 45 46 46 46 49 50 51 52 53 56 57 60 62 63 65 68 71 75 78 81 83 85 87 89 89 93 95 100 101 105 109 114 118 122
51 50 51 51 50 49 49 49 50 49 49 49 50 52 54 56 56 58 60 62 64 65 67 69 73 77 79 81 85 88 88 91 93 92 95 97 100 103 108 114 119 120 126
55 54 54 54 54 55 54 54 55 55 54 56 56 56 57 59 61 63 64 66 68 71 73 76 79 81 84 85 88 89 91 93 94 97 99 101 105 110 114 119 121 126 131
60 58 57 59 60 60 61 60 59 58 58 60 61 62 63 64 65 66 69 71 74 76 78 81 84 87 89 91 92 92 97 100 100 102 104 106 109 114 117 119 124 130 133
67 64 64 65 64 64 66 65 65 64 62 63 67 67 68 69 69 70 73 75 77 80 83 86 89 93 93 93 96 97 99 100 102 104 108 111 115 119 121 125 129 133 135
71 70 70 69 67 68 69 70 69 68 69 70 72 72 72 73 76 78 79 81 83 86 89 91 92 94 94 96 99 101 101 101 103 110 113 116 119 121 125 130 131 133 134
78 77 76 76 73 72 73 73 73 72 71 73 75 77 76 78 80 83 85 86 88 88 90 91 95 94 95 97 100 100 99 102 108 111 114 116 119 122 128 128 132 135 138
83 82 81 81 79 78 78 79 80 78 75 75 76 76 76 77 79 80 83 84 90 90 93 93 94 96 96 99 98 99 104 108 110 113 116 119 121 127 128 130 133 136 140
85 85 85 85 85 84 85 85 85 83 82 81 82 82 81 83 83 84 87 88 92 95 94 95 96 100 100 97 100 105 109 113 113 117 120 121 126 129 132 132 137 138 142
Wind_Direction
257 258 260 260 257 254 252 252 254 252 253 253 254 254 256 259 260 263 266 270 271 274 280 283 279 268 256 254 259 266 274 284 290 300 305 307 310 310 307 305 303 299 294
246 251 257 260 258 255 253 251 251 251 251 253 254 257 260 260 261 263 265 267 269 274 272 267 256 247 249 257 263 271 283 286 294 302 305 308 307 307 305 304 303 299 297
247 256 262 255 249 246 245 245 244 245 245 248 252 253 254 255 257 258 258 259 261 258 254 244 239 247 255 260 267 281 285 290 298 303 304 306 305 303 304 302 300 300 299
261 264 278 264 247 236 234 230 235 239 239 243 246 250 254 253 252 250 250 251 248 242 234 233 243 252 259 267 278 282 288 294 299 303 304 304 304 303 301 302 302 303 302
245 273 314 333 226 219 217 222 226 232 235 240 245 247 247 245 242 239 236 232 228 227 232 242 252 259 269 276 280 286 290 297 299 301 303 302 302 303 302 302 304 304 306
201 183 118 94 85 164 208 215 221 228 234 236 241 241 234 227 222 219 220 224 229 238 248 253 261 272 276 281 286 291 294 297 299 300 300 302 302 302 305 308 307 305 305
207 195 177 154 129 117 132 168 193 207 215 217 213 211 211 211 216 223 232 240 244 250 257 266 274 277 281 286 290 292 295 296 299 301 301 303 305 306 306 307 306 304 306
222 226 220 207 203 182 170 165 175 190 202 205 208 213 223 228 240 251 256 260 263 266 273 276 277 281 285 287 290 292 294 298 299 301 303 304 303 304 305 303 303 306 307
229 224 230 235 236 235 227 222 218 220 226 235 239 241 248 255 259 261 266 271 276 278 279 279 280 282 284 288 290 293 296 298 299 302 305 304 303 304 303 303 306 310 309
227 232 232 232 237 241 244 243 243 243 243 245 246 250 251 256 261 267 271 275 276 277 279 281 282 284 288 290 291 293 296 298 304 304 304 304 305 306 308 308 310 309 311
228 232 236 238 241 241 244 249 252 253 254 257 258 259 261 263 267 268 268 270 274 276 278 280 283 287 287 288 293 294 296 302 302 304 305 310 310 310 310 311 311 312 313
228 233 240 239 240 242 244 248 254 260 260 259 260 262 264 266 266 269 272 274 276 278 282 284 286 286 289 292 292 295 298 301 304 306 310 309 309 311 313 313 315 313 312
235 238 242 245 246 247 248 250 254 256 259 260 261 265 266 268 271 273 275 278 280 283 284 284 285 287 289 292 295 298 301 303 305 306 307 308 310 312 312 314 313 312 313
242 243 245 248 251 252 254 254 256 259 261 263 265 266 268 270 272 273 276 277 279 279 281 284 287 289 292 295 297 301 303 303 306 308 308 310 312 311 312 312 312 313 316
243 245 248 252 254 253 256 258 260 261 263 265 266 268 269 270 271 273 274 276 276 278 282 285 288 290 293 296 299 301 303 305 308 308 310 311 309 311 311 312 315 315 316
243 246 248 250 254 256 258 260 262 264 265 265 267 269 269 269 271 273 274 275 275 278 281 285 286 289 292 296 299 301 305 308 308 309 310 309 310 310 313 314 314 317 317
247 247 250 254 256 259 261 263 265 266 266 267 268 268 267 268 269 269 273 275 276 279 281 284 287 291 295 297 300 303 305 306 307 308 309 309 311 312 313 314 316 318 320
249 252 253 255 257 260 263 264 265 267 268 271 271 269 268 269 271 273 275 276 279 280 282 286 291 293 297 299 302 304 306 307 307 309 311 310 311 310 312 315 318 320 323
250 251 252 255 260 262 264 264 265 267 270 271 272 273 272 272 273 274 276 279 281 282 286 289 292 295 297 300 302 305 306 306 308 309 307 307 310 313 315 316 319 321 322
255 256 257 260 262 265 266 267 266 267 269 271 272 273 274 275 277 279 281 282 284 286 289 291 293 295 298 300 303 303 305 306 307 306 307 309 312 314 314 318 321 322 324
257 259 259 260 260 263 266 267 269 269 269 270 272 272 274 275 276 278 280 283 285 288 289 291 294 296 298 300 302 304 304 307 307 307 309 310 311 314 316 320 321 323 324
256 258 260 261 262 262 263 264 266 268 270 270 272 275 275 277 278 279 281 283 285 287 290 293 295 297 298 301 302 304 306 306 306 309 309 311 313 315 318 320 322 323 325
256 257 259 261 262 263 265 267 269 269 269 269 271 274 276 277 279 280 282 284 286 288 290 292 295 297 300 302 303 304 305 306 307 308 309 311 313 317 319 321 322 323 324
259 259 259 261 263 265 266 268 269 270 271 271 272 274 275 277 279 281 284 286 289 291 292 294 296 299 301 301 302 302 304 305 306 308 309 312 315 317 319 321 321 322 325
261 262 262 263 264 265 266 267 269 271 272 273 274 275 277 279 280 282 284 287 290 291 293 295 298 298 298 300 301 300 303 305 306 307 311 313 315 317 319 319 320 323 324
261 262 263 265 265 266 267 268 269 270 271 273 274 275 277 278 280 284 285 287 289 292 294 295 295 296 298 299 299 301 302 303 306 310 312 313 316 317 318 320 321 322 322
Height
10743 10743 10744 10744 10745 10746 10748 10750 10754 10759 10760 10762 10764 10765 10766 10768 10769 10770 10771 10772 10773 10773 10774 10775 10775 10775 10775 10776 10777 10777 10775 10774 10772 10769 10765 10761 10757 10753 10748 10744 10741 10737 10733
10737 10735 10735 10734 10734 10735 10737 10740 10744 10748 10752 10753 10755 10757 10759 10759 10760 10762 10763 10764 10765 10767 10768 10768 10769 10770 10771 10772 10773 10771 10770 10768 10765 10762 10758 10754 10749 10745 10741 10736 10732 10727 10723
10732 10731 10729 10727 10726 10727 10729 10732 10735 10740 10744 10747 10748 10750 10751 10751 10753 10754 10755 10756 10759 10760 10762 10764 10766 10767 10768 10768 10768 10766 10764 10762 10759 10755 10751 10746 10742 10737 10732 10727 10722 10717 10713
10729 10729 10726 10723 10722 10723 10725 10728 10731 10735 10739 10742 10743 10744 10745 10746 10746 10747 10749 10752 10754 10756 10759 10761 10762 10763 10763 10763 10762 10760 10758 10755 10752 10747 10743 10738 10732 10727 10722 10717 10712 10707 10702
10728 10727 10725 10723 10722 10722 10724 10726 10729 10732 10735 10737 10739 10740 10741 10742 10743 10744 10746 10748 10751 10754 10756 10758 10758 10758 10759 10758 10757 10754 10751 10748 10743 10738 10734 10728 10723 10717 10712 10707 10702 10695 10688
10727 10727 10726 10725 10724 10723 10724 10726 10728 10730 10732 10735 10736 10737 10738 10739 10740 10743 10745 10748 10750 10752 10753 10753 10754 10755 10754 10753 10751 10747 10744 10739 10734 10729 10724 10718 10713 10708 10702 10697 10690 10683 10676
10725 10726 10726 10726 10726 10726 10726 10727 10728 10729 10731 10733 10735 10736 10737 10739 10741 10743 10745 10746 10748 10748 10749 10750 10750 10750 10748 10746 10742 10739 10735 10729 10724 10719 10714 10709 10703 10698 10692 10685 10678 10670 10663
10723 10725 10725 10725 10726 10727 10727 10728 10729 10730 10731 10733 10734 10736 10737 10739 10740 10741 10742 10744 10745 10745 10745 10745 10744 10743 10740 10737 10734 10730 10725 10720 10715 10710 10704 10699 10693 10686 10680 10672 10664 10656 10648
10720 10722 10723 10725 10726 10726 10727 10728 10728 10729 10730 10731 10733 10734 10735 10736 10737 10738 10740 10740 10741 10740 10740 10739 10737 10735 10732 10729 10725 10721 10716 10711 10706 10701 10695 10688 10682 10674 10666 10658 10650 10642 10632
10717 10719 10720 10721 10723 10724 10725 10726 10727 10727 10728 10729 10730 10731 10731 10732 10733 10734 10735 10735 10735 10734 10733 10732 10730 10727 10724 10721 10716 10712 10708 10702 10696 10690 10683 10677 10669 10661 10652 10644 10636 10626 10614
10712 10714 10716 10717 10718 10720 10721 10722 10723 10724 10725 10725 10725 10726 10727 10727 10728 10728 10729 10728 10727 10727 10726 10724 10720 10717 10714 10711 10707 10702 10697 10692 10685 10679 10672 10664 10655 10646 10638 10630 10620 10607 10595
10707 10709 10710 10712 10713 10715 10716 10718 10718 10719 10720 10721 10721 10721 10721 10722 10722 10721 10721 10720 10719 10718 10717 10714 10712 10708 10705 10702 10697 10693 10687 10681 10674 10667 10658 10650 10641 10632 10623 10613 10602 10589 10577
10702 10704 10705 10707 10708 10710 10711 10712 10714 10714 10715 10715 10715 10716 10716 10716 10716 10714 10713 10712 10710 10709 10707 10704 10702 10698 10695 10692 10687 10682 10676 10669 10662 10653 10643 10635 10626 10617 10606 10597 10584 10571 10558
10697 10699 10700 10702 10703 10704 10705 10705 10707 10708 10708 10708 10708 10708 10708 10708 10707 10706 10704 10703 10701 10699 10696 10693 10691 10688 10684 10680 10675 10670 10664 10657 10649 10638 10628 10619 10611 10601 10590 10580 10567 10552 10538
10691 10692 10694 10695 10696 10697 10698 10698 10699 10699 10699 10700 10700 10700 10699 10699 10698 10696 10695 10693 10691 10689 10686 10683 10680 10676 10672 10668 10663 10658 10651 10644 10635 10623 10614 10604 10594 10585 10575 10563 10548 10534 10517
10684 10684 10686 10687 10688 10689 10689 10689 10690 10690 10691 10691 10691 10691 10690 10689 10687 10686 10685 10683 10681 10679 10676 10673 10668 10664 10660 10656 10650 10644 10636 10628 10618 10608 10599 10587 10577 10567 10556 10544 10530 10513 10495
10674 10676 10677 10678 10679 10679 10680 10680 10680 10680 10680 10681 10681 10681 10680 10678 10677 10676 10675 10672 10670 10667 10664 10661 10657 10652 10647 10641 10636 10629 10621 10612 10605 10593 10584 10573 10561 10549 10538 10526 10510 10492 10473
10666 10667 10669 10669 10668 10669 10671 10671 10671 10670 10670 10670 10670 10670 10669 10668 10667 10666 10663 10660 10658 10655 10652 10648 10644 10638 10633 10626 10620 10613 10605 10596 10588 10578 10567 10555 10544 10532 10519 10504 10490 10470 10450
10655 10657 10658 10658 10659 10660 10661 10661 10661 10661 10661 10660 10660 10659 10658 10657 10655 10653 10651 10648 10645 10642 10638 10634 10629 10623 10617 10611 10604 10594 10588 10578 10569 10562 10549 10538 10525 10512 10497 10484 10468 10449 10429
10644 10646 10647 10648 10649 10648 10649 10649 10650 10651 10651 10649 10648 10647 10646 10645 10643 10641 10638 10635 10633 10628 10623 10618 10614 10607 10601 10595 10587 10577 10569 10562 10551 10544 10533 10521 10505 10492 10478 10460 10446 10425 10404
10630 10633 10636 10637 10637 10638 10637 10637 10637 10638 10638 10637 10635 10634 10633 10632 10630 10628 10624 10622 10618 10614 10608 10603 10597 10591 10584 10578 10571 10561 10549 10541 10531 10520 10514 10501 10492 10475 10460 10442 10423 10403 10384
10616 10618 10620 10621 10624 10625 10623 10623 10622 10623 10624 10624 10620 10620 10620 10619 10617 10615 10610 10607 10604 10598 10592 10586 10580 10573 10566 10558 10549 10542 10530 10519 10509 10501 10488 10479 10465 10449 10434 10418 10399 10379 10361
10600 10603 10604 10604 10607 10608 10608 10607 10607 10608 10609 10609 10606 10604 10605 10603 10599 10598 10595 10591 10587 10582 10576 10569 10563 10555 10547 10539 10530 10520 10510 10501 10489 10476 10466 10456 10440 10428 10412 10396 10377 10361 10343
10583 10585 10588 10588 10591 10592 10591 10590 10589 10590 10593 10592 10590 10589 10589 10587 10585 10581 10576 10573 10567 10563 10557 10552 10543 10537 10529 10519 10510 10500 10491 10483 10473 10459 10447 10437 10422 10409 10394 10378 10359 10343 10323
10565 10567 10569 10571 10573 10574 10573 10572 10570 10572 10576 10574 10573 10571 10571 10570 10567 10565 10559 10557 10549 10546 10540 10535 10527 10518 10511 10501 10490 10480 10472 10462 10454 10443 10428 10414 10402 10387 10375 10361 10341 10323 10304
10548 10549 10551 10551 10553 10554 10553 10552 10551 10554 10557 10556 10554 10553 10553 10550 10550 10548 10543 10540 10535 10527 10522 10515 10507 10498 10491 10483 10472 10463 10452 10442 10432 10421 10407 10395 10381 10369 10351 10339 10321 10302 10285